Showing default

UNICORN-2M, 58726

Orbit data source: Space-Track

UNICORN-2M, 58726 is a payload satellite owned by Alba Orbital (DE) in SSO that was launched on Fri, 01 Dec 2023 UTC via an FALCON 9 launch vehicle from the Air Force Western Test Range (AFWTR). Payload-class satellites include a variety of spacecraft equipped with specific instruments for various scientific and technological missions. These include communications satellites like Starlink; space stations such as the ISS; scientific satellites like the Hubble; Earth observation satellites from companies like Planet Labs, Umbra, and HawkEye 360; GPS; miniature CubeSats for education and research; and military/defense satellites.

Loading next visibility...
Identifier
58726, 2023-185Q
Orbit
SSO
Country
Flag of DEDE / GER
Related business
Manufacturer
Alba Orbital
Mission
Operational Commercial Imaging
Bus & Motor
POCKETQUBE 3P, Unknown motor
Mass
~0.75 kg wet, ~0.75 kg dry
Launch date (UTC)
2023-12-01 (2 years ago)
Launch vehicle
FALCON 9
Launch site
Air Force Western Test Range (AFWTR)
Object type
Payload
Rocket body
Debris
Shape & HBR
Box + 2 Pan, 0.2 m
Radar Cross Section
0.016 m², Small (<0.1 m²)

Expand to show TLE details & history
Last TLE update: 18 hours ago

TLE from 18 hours ago
0 UNICORN-2M
1 58726U 23185Q   25261.18589837  .00049005  00000-0  11348-2 0  9999
2 58726  97.5724 339.3716 0007886 148.4614 211.7107 15.42265067 94227
Epoch: 2025-09-18T04:27Z
TLE epoch observation values (Epoch: 2025-09-18T04:27:41.619Z)
Latitude
0.00002°
Longitude
-84.90293°
Altitude
447.118 km
Speed
7.641 km/s
True Right ascension
22h 37m 29s
True Declination
0° 00' 00"
Sunlit
Object was in full shadow at epoch
Visualization orbit readout
Latitude
Unknown
Longitude
Unknown
Altitude
Unknown
Speed
Unknown
Apparent Right ascension
Unknown
Apparent Declination
Unknown
Sunlit
N/A
Visualization observer readout
Local Sidereal Time
15:24:35
Azimuth
Unknown
Elevation
Unknown
Doppler factor
Unknown
Orbital elements
Apogee altitude
441.743 km
Perigee altitude
430.996 km
Semi-major axis
6,814.506 km
Eccentricity
0.00079
Inclination
97.5724°
RAAN
339.3716°
Arg. of periapsis
148.4614°
True anomaly
211.66324°
Mean anomaly
211.7107°
Eccentric anomaly
211.68697°
Mean motion
3.85826 °/min
Orbital period
93.31 mins
BSTAR
0.0011348
Loading maneuver chart data...
Computing Atmospheric mass density...
Loading historical data...
Loading historical data...
Loading historical data...
Loading historical data...
Loading historical data...
Loading historical data...
Loading historical data...

Documentation

Showing up to 5 results
|